Simultaneous Nadir Overpasses (SNOs) Predictions

Prediction of SNOs between GOES-17 and NOAA-20 Satellite Orbit:

Table of predicted SNOs for the next 14.0 days since TLE Epoch: 5/14/2022
Index Date Time (GOES-17) GOES-17 Lat,Lon NOAA-20 Lat,Lon Distance(km) Time Diff (sec)
1 05/15/2022 22:37:20 0.01,-137.20 -0.07,-137.62 48.14 80
2 05/16/2022 22:15:56 0.02,-137.19 0.95,-133.09 467.69 80
3 05/18/2022 10:40:23 -0.01,-137.19 0.24,-138.36 133.40 80
4 05/19/2022 10:18:59 -0.01,-137.18 -0.79,-133.84 381.88 80
5 05/20/2022 22:40:54 0.01,-137.16 -0.45,-139.13 225.20 80
6 05/21/2022 22:24:50 0.01,-137.15 0.58,-134.60 289.96 80
7 05/23/2022 10:46:37 -0.01,-137.14 0.61,-139.87 311.74 80
8 05/24/2022 10:25:12 -0.01,-137.12 -0.42,-135.34 203.34 80
9 05/25/2022 22:47:08 0.00,-137.10 -0.81,-140.64 404.09 80
10 05/26/2022 22:31:03 0.00,-137.09 0.22,-136.11 110.82 80
